Simultaneous Nadir Overpasses (SNOs) Predictions

Prediction of SNOs near equator between AQUA and NPP Satellite Orbit:

Table of predicted SNOs near equator for the next 14.0 days since TLE Epoch: 2/8/2019
Index Date (AQUA) Time (AQUA) AQUA Lat,Lon Date (NPP) Time (NPP) NPP Lat,Lon Distance(km) Time Diff (sec)
1 02/10/2019 00:09:22 5.51,-159.20 02/09/2019 23:59:34 5.46,-159.51 34.94 588
2 02/10/2019 00:57:28 -0.94, 9.44 02/10/2019 00:48:56 -0.83, 8.86 65.45 512
3 02/10/2019 01:45:45 -3.57, 178.01 02/10/2019 01:38:27 -3.77, 177.18 95.02 438
4 02/12/2019 16:25:28 4.09, -43.01 02/12/2019 16:16:03 3.99, -43.40 44.87 565
5 02/12/2019 17:13:34 0.49, 125.62 02/12/2019 17:05:25 0.64, 124.96 75.34 489
6 02/15/2019 07:59:35 -29.97,-100.71 02/15/2019 07:49:35 -30.25,-101.29 63.79 600
7 02/15/2019 08:41:33 2.67, 73.17 02/15/2019 08:32:32 2.58, 72.69 54.90 541
8 02/15/2019 09:29:39 1.90,-118.20 02/15/2019 09:21:54 2.05,-118.95 85.26 465
9 02/18/2019 00:09:22 -5.75, 20.78 02/17/2019 23:59:30 -5.71, 20.46 34.96 592
10 02/18/2019 00:57:39 1.26,-170.65 02/18/2019 00:49:01 1.11,-171.21 64.98 518
11 02/18/2019 01:45:45 3.32, -2.01 02/18/2019 01:38:23 3.51, -2.85 95.07 442
12 02/20/2019 16:25:28 -4.34, 136.96 02/20/2019 16:15:59 -4.25, 136.57 44.87 569
13 02/20/2019 17:13:44 -0.20, -54.45 02/20/2019 17:05:30 -0.35, -55.11 74.90 494




NCC Satellite Simultaneous Nadir Overpasses (SNOs) Prediction Service
